Regional Weather Roundup
Issued by NWS Grand Forks, ND

Home | Current Version | Previous Version | Graphics & Text | Print | Product List | Glossary On
Versions: 1 2 3 4 5 6 7 8 9 10 11 12 13 14 15 16 17 18 19 20 21 22 23 24 25 26 27 28 29 30 31 32 33 34 35 36 37 38 39 40 41 42 43 44 45 46 47 48 49 50
000
ASUS43 KFGF 170710
RWRFGF
PRAIRIE TO PINES  WEATHER ROUNDUP
NATIONAL WEATHER SERVICE EASTERN NORTH DAKOTA/GRAND FORKS ND
200 AM CDT WED SEP 17 2014

 **SATELLITE DATA USED TO AUGMENT SKY COVER AT AUTOMATED STATIONS**
 *****  WEATHER ACROSS EASTERN NORTH DAKOTA  *****

CITY           SKY/WX    TMP DP  RH WIND       PRES   REMARKS
GRAND FORKS    CLEAR     48  42  80 S5        29.90S
GRAND FRKS AFB CLEAR     47  43  85 SW6       29.90F
GRAND FRKS NWS   N/A     48 N/A N/A SW2         N/A
DEVILS LAKE    CLEAR     48  41  76 S6        29.90S
FARGO          CLEAR     56  47  71 S6        29.90F
WAHPETON ARPT  SUNNY     50  45  81 SE5       29.91S
$$

 ***** WEATHER ACROSS CENTRAL AND WESTERN NORTH DAKOTA  *****

CITY           SKY/WX    TMP DP  RH WIND       PRES   REMARKS
BISMARCK       CLEAR     47  44  90 CALM      29.94S
MINOT          CLEAR     50  43  77 SW9       29.91S
JAMESTOWN      CLEAR     44  41  89 NW3       29.91S
MINOT AFB      CLEAR     43  42  96 W8        29.91S
GARRISON         N/A     45  42  89 CALM      29.93S
WILLISTON      CLEAR     44  37  76 CALM      29.93S HAZE
DICKINSON      PTCLDY    50  41  71 CALM      29.93F
HETTINGER      PTCLDY    44  41  89 W5        29.95S
$$

 *****  OTHER AIRPORT OBSERVATIONS IN OUR AREA  *****

CITY           SKY/WX    TMP DP  RH WIND       PRES   REMARKS
WALHALLA       FAIR      57  41  54 W6        29.88F
GRAFTON AIRPOR FAIR      48  41  76 SW7       29.89F
VALLEY CITY AR FAIR      46  46 100 N5        29.91S
CANDO          FAIR      43  39  87 CALM      29.92R
CAVALIER APRT  FAIR      52  41  66 SW8       29.88F
GWINNER        SUNNY     50  50 100 SW9       29.91S
SHEYENNE NWR     N/A     47  46  97 CALM      29.95S
ROLLA          CLOUDY    45  43  93 W6        29.92S
 ***** THE ABOVE OBSERVATIONS ARE NON NWS ARE NOT QUALITY
       CONTROLLED AND MAY MIS-REPORT RAIN FOR SNOW...
$$

  *****  WEATHER ACROSS NORTHERN MINNESOTA  *****

CITY           SKY/WX    TMP DP  RH WIND       PRES   REMARKS
FLAG ISLAND    CLOUDY    57  48  72 N17       29.88R
WARROAD        PTCLDY    54  45  71 SW9       29.87R
ROSEAU         PTCLDY    54  45  71 SW10      29.87S
HALLOCK        CLEAR     45  41  87 S7        29.89S
THF RVR FALLS  CLEAR     50  43  76 S6        29.91S
BAUDETTE       PTCLDY    53  42  66 SW10      29.86F
WASKISH        PTCLDY    54  43  66 CALM      29.90S
CROOKSTON      CLEAR     46  43  87 S6        29.91S
$$
  *****  WEATHER ACROSS CENTRAL AND WEST MINNESOTA  *****

CITY           SKY/WX    TMP DP  RH WIND       PRES   REMARKS
FOSSTON        CLEAR     45  41  87 S5        29.93S
BEMIDJI        CLEAR     47  41  79 SW5       29.92F
PARK RAPIDS    CLEAR     48  42  80 S5        29.94F
ELBOW LAKE     FAIR      52  47  84 SE6       29.92F
WADENA         CLEAR     46  43  87 CALM      29.94S
DETROIT LAKES  CLEAR     52  46  82 SE6       29.93F
MOORHEAD       CLEAR     54  52  94 SE5       29.91F
FERGUS FALLS   PTCLDY    54  46  76 SE7       29.92F
MORRIS MN      CLEAR     52  48  87 SE6       29.92F
STAPLES        CLEAR     46  45  93 CALM      29.94F
$$
  *****  WEATHER ELSEWHERE ACROSS MINNESOTA  *****

CITY           SKY/WX    TMP DP  RH WIND       PRES   REMARKS
DULUTH         PTCLDY    50  42  74 W5        29.95F
INTRNTL FALLS  CLOUDY    52  45  77 SW7       29.86F
ELY            CLOUDY    52  45  76 SW6       29.90F
CLOQUET        CLEAR     48  41  76 SW7       29.95F
WHEATON        CLEAR     48  46  93 CALM      29.93S
BRAINERD       CLEAR     44  43  96 CALM      29.96F
HIBBING        PTCLDY    44  40  85 S3        29.93F
ALEXANDRIA     CLOUDY    53  48  83 S7        29.95F
SAINT CLOUD    CLOUDY    55  48  77 CALM      29.96F
MINNEAPOLIS    CLOUDY    56  47  71 SE6       29.97F
$$

  *****  WEATHER ACROSS SOUTH DAKOTA  *****

CITY           SKY/WX    TMP DP  RH WIND       PRES   REMARKS
SIOUX FALLS    MOCLDY    58  50  75 S7        29.95F
BROOKINGS      NOT AVBL
WATERTOWN      PTCLDY    55  50  83 S8        29.92F
HURON          MOCLDY    54  51  90 S7        29.90S
SISSETON         N/A     50  49  96 CALM      29.90F
ABERDEEN       CLEAR     47  47 100 CALM      29.91S
MITCHELL       PTCLDY    54  52  93 SE7       29.91S
PIERRE         PTCLDY    51  48  89 NE5       29.88S
MOBRIDGE       MOCLDY    55  51  86 E3        29.89R
RAPID CITY     CLEAR     53  45  74 W7        29.95F
$$

  *****  SOME WEATHER IN NEARBY STATES *****

CITY           SKY/WX    TMP DP  RH WIND       PRES   REMARKS
GLASGOW MT     PTCLDY    54  40  59 E10       29.90S
GREAT FALLS MT MOCLDY    59  43  55 SW5       29.92S
CHEYENNE WY    PTCLDY    60  38  43 W7        30.16S
SCOTTSBLUFF NE PTCLDY    57  47  69 E3        30.01S
OMAHA NE       CLOUDY    63  52  67 S8        29.98S
DES MOINES IA  MOCLDY    56  49  77 SE7       30.02F
DAVENPORT IA   CLEAR     47  43  86 SE3       30.07F
CHICAGO IL     CLEAR     53  47  79 CALM      30.07F
EAU CLAIRE WI  CLEAR     43  40  89 CALM      30.01S
LA CROSSE WI   CLEAR     49  46  90 SE6       30.04S
$$

  *****  SOME NATIONAL WEATHER *****

CITY           SKY/WX    TMP DP  RH WIND       PRES   REMARKS
LA GUARDIA NY  CLEAR     62  50  64 N3        30.02S
RALEIGH NC     CLOUDY    69  66  90 CALM      29.97F
ATLANTA GA     PTCLDY    71  67  87 NW7       29.99F
NEW ORLEANS LA CLOUDY    77  72  84 N5        29.96F
OKLAHOMA CITY  MOCLDY    72  67  84 S6        30.01F
ALBUQUERQUE NM CLOUDY    61  54  77 SE5       30.22F
SALT LAKE CITY CLEAR     73  43  33 SE13      29.95F
LOS ANGELES CA PTCLDY    78  58  49 CALM      29.73S
BOISE ID       MOCLDY    75  42  30 SE8       29.82S
SEATTLE WA     CLOUDY    62  54  74 S6        29.90R
$$

*** WEATHER ACROSS MANITOBA...SASKATCHEWAN AND ONTARIO ***
                ***ONTARIO***

CITY           SKY/WX    TMP DP  RH WIND       PRES   REMARKS
GERALDTON      CLOUDY    34  27  75 E3        30.03S
THUNDER BAY    CLOUDY    46  43  87 SE9       29.95F
SIOUX LOOKOUT  LGT SNOW  36  34  93 NE7       29.97S
TORONTO        CLEAR     48  45  87 W3        30.04S
BIG TROUT LK   CLOUDY    34  25  69 N5        30.05S
PICKLE LAKE    NOT AVBL
DRYDEN         LGT RAIN  41  39  93 NE14G24   29.93R
KENORA         LGT RAIN  43  43 100 N12G20    29.93R
$$
                *** MANITOBA***

CITY           SKY/WX    TMP DP  RH WIND       PRES   REMARKS
BRANDON        PTCLDY    46  45  93 NE16G22   29.94R
DAUPHIN        CLOUDY    45  41  87 E14G20    30.01R
ISLAND LAKE    PTCLDY    32  28  86 N6        30.10R
PILOT MOUND      N/A     45  39  81 S6          N/A
THE PAS        CLOUDY    36  34  93 E5        30.11R
THOMPSON       PTCLDY    21  19  93 CALM      30.14S
WINNIPEG       MOCLDY    50  45  81 NE12      29.92S
LYNN LAKE      CLEAR     27  21  80 E3        30.15R
CHURCHILL      FLURRIES  32  28  86 N15G28    30.09R WCI  22
GILLAM         CLOUDY    32  27  80 N13       30.13S WCI  22
$$
                ***SASKATCHEWAN***

CITY           SKY/WX    TMP DP  RH WIND       PRES   REMARKS
ESTEVAN        CLEAR     46  41  81 SW5       29.92S
KINDERSLEY     CLEAR     54  43  66 SE8       29.89R
LLOYDMINSTER   CLEAR     48  45  87 E7        29.89S
PRINCE ALBERT  CLOUDY    39  37  93 E12       30.02S FOG
REGINA         CLEAR     50  43  76 NE7       29.92R
YORKTON        CLOUDY    48  46  93 NE12      29.96S
N. BATTLEFORD  FOG       46  45  93 E15G22    29.94R VSB 5/8
LA RONGE       DRIZZLE   37  36  93 E7        30.09S
SASKATOON      PTCLDY    43  43 100 NE10      29.96R
SWIFT CURRENT  CLEAR     50  41  71 SE8       29.90R
$$
NOTE: THESE ARE AUTOMATED STATIONS WITH LIMITED QUALITY CONTROL
      "FAIR" INDICATES FEW OR NO CLOUDS BELOW 12,000 FEET WITH NO
      SIGNIFICANT WEATHER AND/OR OBSTRUCTIONS TO VISIBILITY.
      SKY/WX - SKY CONDITION AND SIGNIFICANT WEATHER.
      TMP - AIR TEMPERATURE.    DP   - DEWPOINT TEMPERATURE.
      RH  - RELATIVE HUMIDITY.  PRES - PRESSURE.
      HX  - HEAT INDEX.         WCI  - WIND CHILL INDEX.
$


USA.gov is the U.S. government's official web portal to all federal, state and local government web resources and services.